[[{"header":{"parameterUnit":"m.s-1","parameterCategory":1,"la1":30.2991,"la2":30.254,"lo1":-89.0895,"lo2":-89.0444,"dy":0.0017,"dx":0.0017,"nx":28,"ny":28,"refTime":"2024-06-22T09:00:00:Z","depth":0,"parameterNumber":2,"parameterNumberName":"U-component_of_WINDS"},"data":[0,0,0,0,0,0,0,0,0,0,0,0,0,0,0,0,0,0,0,0,0,0,0,0,0,0,0,0,0,0,0,0,0,0,0,0,0,0,0,0,0,0,0,0,0,0,0,0,0,0,0,0,0,0,0,0,0,0,-0.2158,-0.2157,0,-0.2124,-0.2123,-0.2123,-0.2082,-0.2081,-0.2081,-0.208,-0.2047,-0.2047,-0.2046,0,0,0,0,0,0,0,0,0,0,0,0,0,-0.2188,-0.2188,-0.2158,-0.2157,-0.2157,-0.2124,-0.2123,-0.2123,-0.2082,-0.2081,-0.2081,-0.208,-0.2047,-0.2047,-0.2046,0,0,0,0,0,0,0,0,0,0,0,0,0,-0.2167,-0.2188,-0.2158,-0.2133,-0.213,-0.2124,-0.2123,-0.2123,-0.2082,-0.2081,-0.208,-0.2079,-0.2047,-0.2047,-0.2046,-0.2063,0,0,-0.2045,-0.2045,0,0,0,0,0,0,0,0,-0.2168,-0.2166,-0.2137,-0.2134,-0.2131,-0.2106,-0.2122,-0.2103,-0.2083,-0.21,-0.208,-0.2079,-0.2067,-0.2065,-0.2061,-0.2061,-0.206,-0.2045,-0.2045,-0.2044,-0.2044,0,0,0,0,0,0,0,-0.217,-0.2167,-0.2144,-0.2136,-0.2133,-0.2123,-0.2119,-0.2118,-0.209,-0.2099,-0.2096,-0.2092,-0.2066,-0.2062,-0.206,-0.2059,-0.2045,-0.2044,-0.2044,-0.2044,-0.2072,-0.2073,0,0,0,0,0,0,-0.2175,-0.2169,-0.2145,-0.2143,-0.2148,-0.2123,-0.2119,-0.2115,-0.209,-0.2085,-0.2093,-0.209,-0.2063,-0.2061,-0.2059,-0.2077,-0.2044,-0.2044,-0.2044,-0.2071,-0.2072,-0.2073,0,0,0,0,0,0,-0.2176,-0.2173,-0.2147,-0.2155,-0.2151,-0.2124,-0.212,-0.2115,-0.2111,-0.2085,-0.208,-0.2094,-0.2062,-0.2059,-0.2062,-0.2075,-0.2044,-0.2043,-0.207,-0.2071,-0.2073,-0.2114,0,0,0,0,0,0,-0.2177,-0.2174,-0.218,-0.2156,-0.2151,-0.2151,-0.2121,-0.2115,-0.211,-0.2106,-0.2085,-0.208,-0.2061,-0.2063,-0.2062,-0.2074,-0.2043,-0.2068,-0.207,-0.2072,-0.2111,-0.2117,-0.2121,0,0,0,0,0,-0.2178,-0.2193,-0.218,-0.2178,-0.2157,-0.2152,-0.2149,-0.2126,-0.2111,-0.2117,-0.2101,-0.2081,-0.2074,-0.2064,-0.2062,-0.2074,-0.2067,-0.207,-0.2072,-0.2109,-0.2116,-0.2121,0,0,0,0,0,0,-0.222,-0.2189,-0.2175,-0.2182,-0.217,-0.2145,-0.2152,-0.2133,-0.2125,-0.2122,-0.2094,-0.209,-0.2096,-0.2085,-0.2075,-0.2089,-0.2068,-0.207,-0.2097,-0.2103,-0.2107,-0.2111,-0.2043,0,0,0,0,0,-0.223,-0.2227,-0.2201,-0.221,-0.2204,-0.2179,-0.2176,-0.2159,-0.2145,-0.214,-0.2123,-0.2111,-0.2106,-0.2103,-0.2097,-0.2109,-0.2104,-0.2117,-0.2122,-0.2126,-0.2128,-0.2134,-0.214,-0.208,-0.208,-0.208,0,0,-0.2251,-0.2234,-0.2234,-0.2218,-0.2206,-0.2205,-0.2175,-0.2174,-0.2173,-0.214,-0.2142,-0.2129,-0.2113,-0.2121,-0.2123,-0.2112,-0.2143,-0.2129,-0.2132,-0.2132,-0.2137,-0.2143,-0.2148,-0.2082,-0.2082,-0.2081,0,0,-0.2288,-0.2275,-0.2281,-0.227,-0.2252,-0.2235,-0.2237,-0.2214,-0.2205,-0.2206,-0.2181,-0.2179,-0.217,-0.216,-0.2154,-0.2187,-0.2169,-0.2186,-0.2213,-0.2219,-0.2224,-0.2228,-0.224,-0.2245,-0.2188,-0.2188,-0.2188,0,-0.2317,-0.2313,-0.2287,-0.2288,-0.2282,-0.2251,-0.2257,-0.2248,-0.2229,-0.2226,-0.2213,-0.2202,-0.2189,-0.2194,-0.2202,-0.2198,-0.22,-0.2189,-0.2225,-0.2229,-0.2232,-0.2244,-0.2249,-0.2191,-0.219,-0.219,-0.219,0,-0.235,-0.2347,-0.2355,-0.2337,-0.2332,-0.2336,-0.231,-0.2308,-0.2291,-0.2276,-0.2278,-0.2261,-0.2251,-0.2251,-0.2235,-0.2254,-0.2247,-0.223,-0.2208,-0.224,-0.2251,-0.2256,-0.2194,-0.2193,-0.2192,-0.2192,0,0,-0.2415,-0.2382,-0.2385,-0.2377,-0.2355,-0.2353,-0.2355,-0.2345,-0.2344,-0.2332,-0.2334,-0.2327,-0.2311,-0.2304,-0.2286,-0.2291,-0.232,-0.2273,-0.2273,-0.2284,-0.2341,-0.2355,-0.2361,-0.2307,-0.2308,-0.2308,-0.2342,0,-0.2449,-0.2452,-0.2428,-0.2437,-0.2435,-0.2404,-0.2406,-0.2393,-0.2378,-0.2375,-0.2358,-0.2355,-0.2333,-0.2329,-0.2332,-0.2316,-0.2331,-0.2313,-0.2309,-0.231,-0.2316,-0.2366,-0.2381,-0.2415,-0.2346,-0.2347,-0.2347,0,-0.2491,-0.2481,-0.2489,-0.2467,-0.2465,-0.2467,-0.2456,-0.2453,-0.2437,-0.2426,-0.2418,-0.2397,-0.2398,-0.2376,-0.2378,-0.2366,-0.2363,-0.2355,-0.2355,-0.2356,-0.2332,-0.2369,-0.2424,-0.243,-0.2354,-0.2353,-0.2353,0,-0.2539,-0.2527,-0.2531,-0.2525,-0.2498,-0.2501,-0.249,-0.2473,-0.2468,-0.2458,-0.2455,-0.2446,-0.2441,-0.2434,-0.2412,-0.2397,-0.2416,-0.2392,-0.2408,-0.2409,-0.2415,-0.2415,-0.2472,-0.241,-0.241,-0.241,-0.241,0,-0.2581,-0.2588,-0.2552,-0.2555,-0.2562,-0.2534,-0.2541,-0.2528,-0.2513,-0.2513,-0.2485,-0.2486,-0.2455,-0.2452,-0.2434,-0.2439,-0.2437,-0.2428,-0.2424,-0.2432,-0.2433,-0.2431,-0.2428,-0.2412,-0.2411,-0.2411,-0.2411,0,-0.2637,-0.2613,-0.2615,-0.259,-0.2583,-0.259,-0.2568,-0.2569,-0.2552,-0.2552,-0.255,-0.2524,-0.2519,-0.2495,-0.2485,-0.2473,-0.2484,-0.2474,-0.249,-0.2487,-0.2505,-0.2504,-0.2564,-0.257,-0.2503,-0.2504,-0.2504,0,-0.2667,-0.2671,-0.2645,-0.2643,-0.2633,-0.263,-0.2625,-0.2597,-0.2593,-0.2575,-0.2579,-0.2572,-0.2565,-0.2558,-0.2538,-0.253,-0.2521,-0.2542,-0.2519,-0.2527,-0.2523,-0.2523,-0.2524,-0.2547,-0.2548,-0.2549,-0.255,0,-0.2722,-0.271,-0.2703,-0.2693,-0.2687,-0.2678,-0.2667,-0.2666,-0.2635,-0.2632,-0.2627,-0.2621,-0.261,-0.2603,-0.2592,-0.2581,-0.2561,-0.2556,-0.256,-0.2569,-0.2578,-0.2575,-0.2505,-0.2556,-0.2555,-0.2555,-0.2554,-0.2554,-0.2766,-0.2769,-0.2752,-0.2745,-0.2734,-0.2724,-0.2724,-0.2707,-0.2701,-0.269,-0.2674,-0.2671,-0.2655,-0.2637,-0.2627,-0.2625,-0.2613,-0.2618,-0.2619,-0.2621,-0.2626,-0.2577,-0.2622,-0.2622,-0.2622,-0.2621,-0.2621,0,-0.2822,-0.2809,-0.2803,-0.2788,-0.2783,-0.2763,-0.2749,-0.2747,-0.2744,-0.2731,-0.2724,-0.2718,-0.2711,-0.269,-0.2681,-0.2683,-0.2674,-0.2682,-0.2682,-0.268,-0.2636,-0.2635,-0.269,-0.269,-0.269,-0.269,-0.269,-0.269,-0.285,-0.2854,-0.284,-0.2837,-0.2824,-0.282,-0.2815,-0.2805,-0.2794,-0.2788,-0.2783,-0.2769,-0.2752,-0.2742,-0.2735,-0.2729,-0.2728,-0.2739,-0.2731,-0.269,-0.2683,-0.2677,-0.2676,-0.2739,-0.2739,-0.2775,-0.2776,-0.2776]},{"header":{"parameterUnit":"m.s-1","parameterCategory":1,"la1":30.2991,"la2":30.254,"lo1":-89.0895,"lo2":-89.0444,"dy":0.0017,"dx":0.0017,"nx":28,"ny":28,"refTime":"2024-06-22T09:00:00:Z","depth":0,"parameterNumber":3,"parameterNumberName":"V-component_of_WINDS"},"data":[0,0,0,0,0,0,0,0,0,0,0,0,0,0,0,0,0,0,0,0,0,0,0,0,0,0,0,0,0,0,0,0,0,0,0,0,0,0,0,0,0,0,0,0,0,0,0,0,0,0,0,0,0,0,0,0,0,0,1.5661,1.5662,0,1.5702,1.5702,1.5703,1.5689,1.5688,1.5688,1.5687,1.5726,1.5728,1.573,0,0,0,0,0,0,0,0,0,0,0,0,0,1.5569,1.5571,1.5661,1.5662,1.5662,1.5702,1.5702,1.5703,1.5689,1.5688,1.5687,1.5686,1.5725,1.5728,1.573,0,0,0,0,0,0,0,0,0,0,0,0,0,1.561,1.5572,1.5661,1.566,1.5661,1.5702,1.5702,1.5703,1.569,1.5688,1.5687,1.5686,1.5725,1.5727,1.573,1.5774,0,0,1.5739,1.574,0,0,0,0,0,0,0,0,1.5607,1.5613,1.566,1.566,1.5661,1.5689,1.5684,1.5727,1.569,1.5679,1.5687,1.5685,1.5715,1.5718,1.5729,1.5776,1.5777,1.5739,1.5741,1.5742,1.5743,0,0,0,0,0,0,0,1.5605,1.5611,1.5677,1.5661,1.5661,1.5657,1.5661,1.5692,1.5703,1.5679,1.5679,1.5684,1.5715,1.5726,1.573,1.5778,1.5739,1.5741,1.5743,1.5744,1.5862,1.5863,0,0,0,0,0,0,1.5602,1.5609,1.5676,1.5679,1.563,1.566,1.5665,1.5681,1.5703,1.5705,1.5685,1.5683,1.5722,1.5726,1.5731,1.5783,1.5742,1.5745,1.5746,1.586,1.5862,1.5864,0,0,0,0,0,0,1.56,1.5608,1.5674,1.5644,1.5652,1.5663,1.5682,1.5683,1.5694,1.5707,1.5709,1.5695,1.5721,1.5727,1.5763,1.5784,1.5746,1.5748,1.5859,1.5861,1.5863,1.5887,0,0,0,0,0,0,1.5597,1.5607,1.5625,1.5644,1.5653,1.5707,1.5683,1.5685,1.5699,1.5697,1.5717,1.5719,1.572,1.5759,1.5766,1.5787,1.5751,1.5857,1.586,1.5862,1.5885,1.589,1.5895,0,0,0,0,0,1.5594,1.563,1.5626,1.5634,1.5675,1.5708,1.5713,1.5715,1.5701,1.5718,1.5726,1.5718,1.5781,1.5763,1.5771,1.5793,1.5856,1.5859,1.5862,1.5882,1.5889,1.5895,0,0,0,0,0,0,1.5611,1.5632,1.5628,1.5671,1.5688,1.5706,1.5727,1.5722,1.5743,1.574,1.5741,1.5746,1.5783,1.5792,1.5771,1.5836,1.5816,1.5821,1.5829,1.5835,1.584,1.5837,1.5753,0,0,0,0,0,1.5621,1.5646,1.5662,1.5699,1.5708,1.5716,1.573,1.5731,1.5748,1.5755,1.5766,1.5782,1.5806,1.5821,1.5843,1.5886,1.589,1.5905,1.591,1.5914,1.5918,1.5941,1.5947,1.5874,1.5874,1.5874,0,0,1.5639,1.5653,1.5669,1.5702,1.5716,1.5741,1.5722,1.575,1.5769,1.5759,1.5794,1.5802,1.5821,1.5861,1.5879,1.5869,1.5939,1.5918,1.5921,1.5923,1.5945,1.5952,1.5958,1.5877,1.5876,1.5876,0,0,1.5686,1.57,1.5731,1.5745,1.5765,1.5771,1.5778,1.5797,1.5803,1.5838,1.5831,1.5853,1.5893,1.5906,1.5918,1.597,1.5963,1.5977,1.6003,1.6025,1.6031,1.6036,1.6053,1.606,1.5981,1.5981,1.5982,0,1.5706,1.5745,1.5747,1.5776,1.5791,1.5783,1.5815,1.5828,1.5854,1.5864,1.5853,1.5903,1.5915,1.5958,1.597,1.5981,1.5988,1.5975,1.603,1.6035,1.604,1.6056,1.6063,1.5983,1.5983,1.5983,1.5983,0,1.5768,1.5795,1.5818,1.5845,1.5862,1.5892,1.5898,1.5915,1.5913,1.592,1.5955,1.5969,1.5994,1.6004,1.6003,1.6046,1.604,1.6029,1.6009,1.6048,1.6064,1.607,1.5985,1.5985,1.5984,1.5984,0,0,1.5826,1.5854,1.5862,1.5874,1.5896,1.5917,1.5946,1.5971,1.5985,1.6004,1.6027,1.6062,1.6052,1.6066,1.6066,1.6086,1.6125,1.6073,1.6073,1.6081,1.6172,1.6179,1.6187,1.612,1.6122,1.6123,1.617,0,1.5874,1.5926,1.593,1.5976,1.6001,1.5995,1.602,1.6036,1.6042,1.6064,1.6071,1.6095,1.6081,1.6089,1.6108,1.6116,1.6143,1.6113,1.6142,1.6143,1.6136,1.6195,1.6203,1.6247,1.6177,1.6178,1.6179,0,1.5937,1.5958,1.6008,1.6026,1.6036,1.6059,1.6082,1.6103,1.612,1.6124,1.6139,1.6137,1.6166,1.6145,1.6185,1.6164,1.6176,1.6182,1.6183,1.6186,1.6162,1.6198,1.6262,1.6268,1.6188,1.6188,1.6187,0,1.5974,1.6014,1.6049,1.6059,1.6082,1.6098,1.6108,1.6124,1.6139,1.6159,1.6168,1.6191,1.6203,1.622,1.6223,1.6208,1.6263,1.6242,1.6265,1.6265,1.6276,1.6275,1.6342,1.6286,1.6285,1.6285,1.6285,0,1.6026,1.6057,1.6066,1.6087,1.612,1.6124,1.6156,1.6165,1.618,1.6202,1.6198,1.6218,1.6222,1.6243,1.6246,1.6278,1.6283,1.6286,1.6286,1.6286,1.6286,1.6294,1.629,1.6287,1.6287,1.6286,1.6286,0,1.6072,1.608,1.6117,1.6136,1.6141,1.6165,1.618,1.62,1.6206,1.6234,1.6241,1.6251,1.6276,1.6281,1.631,1.6312,1.635,1.6347,1.6344,1.6343,1.6365,1.6363,1.6439,1.6448,1.6386,1.6387,1.6387,0,1.6105,1.6128,1.6149,1.6164,1.6175,1.6199,1.6214,1.6218,1.6234,1.6255,1.6273,1.6297,1.6317,1.6357,1.6366,1.6388,1.6386,1.6411,1.6389,1.6388,1.6385,1.6383,1.6385,1.6414,1.6415,1.6416,1.6416,0,1.6162,1.6165,1.6187,1.6211,1.6229,1.6248,1.6265,1.6277,1.6283,1.6301,1.6327,1.6342,1.6372,1.6396,1.6419,1.6428,1.6423,1.6423,1.6429,1.6429,1.6426,1.6427,1.6354,1.6421,1.6421,1.642,1.642,1.642,1.6202,1.6222,1.624,1.6265,1.6279,1.6295,1.6315,1.6324,1.6346,1.6371,1.6372,1.64,1.6416,1.6445,1.6456,1.6477,1.6469,1.6479,1.6481,1.6483,1.6485,1.6423,1.6481,1.6481,1.6481,1.6481,1.6481,0,1.6258,1.627,1.6292,1.6318,1.6337,1.6331,1.635,1.6367,1.6391,1.6408,1.6427,1.6457,1.648,1.6491,1.6514,1.6529,1.6527,1.6534,1.6533,1.6535,1.6491,1.6483,1.6535,1.6535,1.6535,1.6535,1.6535,1.6535,1.629,1.6323,1.6328,1.6368,1.6379,1.6407,1.6418,1.6433,1.6446,1.6479,1.6499,1.6506,1.652,1.6544,1.6564,1.6567,1.6575,1.6584,1.6585,1.6544,1.6538,1.6533,1.6525,1.6586,1.6586,1.6627,1.6628,1.6628]}]]